owner,sensor,date,latitude,longitude,sea_water_turbidity,qcFlag 
NERRS,ioos:station:NOAA.NERRS:apaebwq:1,2016-05-01T14:45:00Z,29.7858,-84.8752,10.0,1111122 
NERRS,ioos:station:NOAA.NERRS:apaebwq:1,2016-05-01T15:45:00Z,29.7858,-84.8752,9.0,1111122 
NERRS,ioos:station:NOAA.NERRS:apaebwq:1,2016-05-01T16:45:00Z,29.7858,-84.8752,9.0,1111122 
NERRS,ioos:station:NOAA.NERRS:apaebwq:1,2016-05-01T17:45:00Z,29.7858,-84.8752,8.0,1111122 
NERRS,ioos:station:NOAA.NERRS:apaebwq:1,2016-05-01T18:45:00Z,29.7858,-84.8752,11.0,1111122 
NERRS,ioos:station:NOAA.NERRS:apaebwq:1,2016-05-01T19:45:00Z,29.7858,-84.8752,10.0,1111122 
NERRS,ioos:station:NOAA.NERRS:apaebwq:1,2016-05-01T20:45:00Z,29.7858,-84.8752,8.0,1111122 
NERRS,ioos:station:NOAA.NERRS:apaebwq:1,2016-05-02T14:45:00Z,29.7858,-84.8752,8.0,1111122 
NERRS,ioos:station:NOAA.NERRS:apaebwq:1,2016-05-02T15:45:00Z,29.7858,-84.8752,11.0,1111122 
NERRS,ioos:station:NOAA.NERRS:apaebwq:1,2016-05-02T16:45:00Z,29.7858,-84.8752,8.0,1111122 
NERRS,ioos:station:NOAA.NERRS:apaebwq:1,2016-05-02T17:45:00Z,29.7858,-84.8752,9.0,1111122 
NERRS,ioos:station:NOAA.NERRS:apaebwq:1,2016-05-02T18:45:00Z,29.7858,-84.8752,9.0,1111122 
NERRS,ioos:station:NOAA.NERRS:apaebwq:1,2016-05-02T19:45:00Z,29.7858,-84.8752,12.0,1111122 
NERRS,ioos:station:NOAA.NERRS:apaebwq:1,2016-05-02T20:45:00Z,29.7858,-84.8752,9.0,1111122 
NERRS,ioos:station:NOAA.NERRS:apaebwq:1,2016-05-02T21:45:00Z,29.7858,-84.8752,12.0,1111122 
NERRS,ioos:station:NOAA.NERRS:apaebwq:1,2016-05-03T14:45:00Z,29.7858,-84.8752,8.0,1111122 
NERRS,ioos:station:NOAA.NERRS:apaebwq:1,2016-05-03T15:45:00Z,29.7858,-84.8752,8.0,1111122 
NERRS,ioos:station:NOAA.NERRS:apaebwq:1,2016-05-03T16:45:00Z,29.7858,-84.8752,9.0,1111122 
NERRS,ioos:station:NOAA.NERRS:apaebwq:1,2016-05-03T17:45:00Z,29.7858,-84.8752,10.0,1111122 
NERRS,ioos:station:NOAA.NERRS:apaebwq:1,2016-05-03T18:45:00Z,29.7858,-84.8752,10.0,1111122 
NERRS,ioos:station:NOAA.NERRS:apaebwq:1,2016-05-03T19:45:00Z,29.7858,-84.8752,8.0,1111122 
NERRS,ioos:station:NOAA.NERRS:apaebwq:1,2016-05-03T20:45:00Z,29.7858,-84.8752,20.0,1111122 
NERRS,ioos:station:NOAA.NERRS:apaebwq:1,2016-05-03T21:45:00Z,29.7858,-84.8752,18.0,1111122 
NERRS,ioos:station:NOAA.NERRS:apaebwq:1,2016-05-03T22:45:00Z,29.7858,-84.8752,23.0,1111122 
NERRS,ioos:station:NOAA.NERRS:apaebwq:1,2016-05-03T23:45:00Z,29.7858,-84.8752,15.0,1111122 
NERRS,ioos:station:NOAA.NERRS:apaebwq:1,2016-05-04T00:45:00Z,29.7858,-84.8752,11.0,1111122 
NERRS,ioos:station:NOAA.NERRS:apaebwq:1,2016-05-04T01:45:00Z,29.7858,-84.8752,11.0,1111122 
NERRS,ioos:station:NOAA.NERRS:apaebwq:1,2016-05-04T02:45:00Z,29.7858,-84.8752,9.0,1111122 
NERRS,ioos:station:NOAA.NERRS:apaebwq:1,2016-05-04T03:45:00Z,29.7858,-84.8752,11.0,1111122 
NERRS,ioos:station:NOAA.NERRS:apaebwq:1,2016-05-04T04:45:00Z,29.7858,-84.8752,12.0,1111122 
NERRS,ioos:station:NOAA.NERRS:apaebwq:1,2016-05-04T05:45:00Z,29.7858,-84.8752,12.0,1111122 
NERRS,ioos:station:NOAA.NERRS:apaebwq:1,2016-05-04T06:45:00Z,29.7858,-84.8752,9.0,1111122 
NERRS,ioos:station:NOAA.NERRS:apaebwq:1,2016-05-04T07:45:00Z,29.7858,-84.8752,10.0,1111122 
NERRS,ioos:station:NOAA.NERRS:apaebwq:1,2016-05-04T08:45:00Z,29.7858,-84.8752,10.0,1111122 
NERRS,ioos:station:NOAA.NERRS:apaebwq:1,2016-05-04T09:45:00Z,29.7858,-84.8752,7.0,1111122 
NERRS,ioos:station:NOAA.NERRS:apaebwq:1,2016-05-04T10:45:00Z,29.7858,-84.8752,9.0,1111122 
NERRS,ioos:station:NOAA.NERRS:apaebwq:1,2016-05-04T11:45:00Z,29.7858,-84.8752,10.0,1111122 
NERRS,ioos:station:NOAA.NERRS:apaebwq:1,2016-05-04T12:45:00Z,29.7858,-84.8752,9.0,1111122 
NERRS,ioos:station:NOAA.NERRS:apaebwq:1,2016-05-04T13:45:00Z,29.7858,-84.8752,8.0,1111122 
NERRS,ioos:station:NOAA.NERRS:apaebwq:1,2016-05-04T14:45:00Z,29.7858,-84.8752,9.0,1111122 
NERRS,ioos:station:NOAA.NERRS:apaebwq:1,2016-05-04T15:45:00Z,29.7858,-84.8752,11.0,1111122 
NERRS,ioos:station:NOAA.NERRS:apaebwq:1,2016-05-04T16:45:00Z,29.7858,-84.8752,13.0,1111122 
NERRS,ioos:station:NOAA.NERRS:apaebwq:1,2016-05-04T17:45:00Z,29.7858,-84.8752,12.0,1111122 
NERRS,ioos:station:NOAA.NERRS:apaebwq:1,2016-05-04T18:45:00Z,29.7858,-84.8752,10.0,1111122 
NERRS,ioos:station:NOAA.NERRS:apaebwq:1,2016-05-04T19:45:00Z,29.7858,-84.8752,11.0,1111122 
NERRS,ioos:station:NOAA.NERRS:apaebwq:1,2016-05-04T20:45:00Z,29.7858,-84.8752,11.0,1111122 
NERRS,ioos:station:NOAA.NERRS:apaebwq:1,2016-05-04T21:45:00Z,29.7858,-84.8752,11.0,1111122 
NERRS,ioos:station:NOAA.NERRS:apaebwq:1,2016-05-04T22:45:00Z,29.7858,-84.8752,12.0,1111122 
NERRS,ioos:station:NOAA.NERRS:apaebwq:1,2016-05-04T23:45:00Z,29.7858,-84.8752,12.0,1111122 
NERRS,ioos:station:NOAA.NERRS:apaebwq:1,2016-05-05T00:45:00Z,29.7858,-84.8752,12.0,1111122 
NERRS,ioos:station:NOAA.NERRS:apaebwq:1,2016-05-05T01:45:00Z,29.7858,-84.8752,13.0,1111122 
NERRS,ioos:station:NOAA.NERRS:apaebwq:1,2016-05-05T02:45:00Z,29.7858,-84.8752,12.0,1111122 
NERRS,ioos:station:NOAA.NERRS:apaebwq:1,2016-05-05T03:45:00Z,29.7858,-84.8752,14.0,1111122 
NERRS,ioos:station:NOAA.NERRS:apaebwq:1,2016-05-05T04:45:00Z,29.7858,-84.8752,15.0,1111122 
NERRS,ioos:station:NOAA.NERRS:apaebwq:1,2016-05-05T05:45:00Z,29.7858,-84.8752,14.0,1111122 
NERRS,ioos:station:NOAA.NERRS:apaebwq:1,2016-05-05T06:45:00Z,29.7858,-84.8752,15.0,1111122 
NERRS,ioos:station:NOAA.NERRS:apaebwq:1,2016-05-05T07:45:00Z,29.7858,-84.8752,15.0,1111122 
NERRS,ioos:station:NOAA.NERRS:apaebwq:1,2016-05-05T08:45:00Z,29.7858,-84.8752,17.0,1111122 
NERRS,ioos:station:NOAA.NERRS:apaebwq:1,2016-05-05T09:45:00Z,29.7858,-84.8752,13.0,1111122 
NERRS,ioos:station:NOAA.NERRS:apaebwq:1,2016-05-05T10:45:00Z,29.7858,-84.8752,13.0,1111122 
NERRS,ioos:station:NOAA.NERRS:apaebwq:1,2016-05-05T11:45:00Z,29.7858,-84.8752,11.0,1111122 
NERRS,ioos:station:NOAA.NERRS:apaebwq:1,2016-05-05T12:45:00Z,29.7858,-84.8752,12.0,1111122 
NERRS,ioos:station:NOAA.NERRS:apaebwq:1,2016-05-05T13:45:00Z,29.7858,-84.8752,10.0,1111122 
NERRS,ioos:station:NOAA.NERRS:apaebwq:1,2016-05-05T14:45:00Z,29.7858,-84.8752,11.0,1111122 
NERRS,ioos:station:NOAA.NERRS:apaebwq:1,2016-05-05T15:45:00Z,29.7858,-84.8752,13.0,1111122 
NERRS,ioos:station:NOAA.NERRS:apaebwq:1,2016-05-05T16:45:00Z,29.7858,-84.8752,14.0,1111122 
NERRS,ioos:station:NOAA.NERRS:apaebwq:1,2016-05-05T17:45:00Z,29.7858,-84.8752,13.0,1111122 
NERRS,ioos:station:NOAA.NERRS:apaebwq:1,2016-05-05T18:45:00Z,29.7858,-84.8752,13.0,1111122 
NERRS,ioos:station:NOAA.NERRS:apaebwq:1,2016-05-05T19:45:00Z,29.7858,-84.8752,12.0,1111122 
NERRS,ioos:station:NOAA.NERRS:apaebwq:1,2016-05-05T20:45:00Z,29.7858,-84.8752,12.0,1111122 
NERRS,ioos:station:NOAA.NERRS:apaebwq:1,2016-05-05T21:45:00Z,29.7858,-84.8752,14.0,1111122 
NERRS,ioos:station:NOAA.NERRS:apaebwq:1,2016-05-05T22:45:00Z,29.7858,-84.8752,13.0,1111122 
NERRS,ioos:station:NOAA.NERRS:apaebwq:1,2016-05-05T23:45:00Z,29.7858,-84.8752,13.0,1111122 
NERRS,ioos:station:NOAA.NERRS:apaebwq:1,2016-05-06T00:45:00Z,29.7858,-84.8752,13.0,1111122 
NERRS,ioos:station:NOAA.NERRS:apaebwq:1,2016-05-06T01:45:00Z,29.7858,-84.8752,13.0,1111122 
NERRS,ioos:station:NOAA.NERRS:apaebwq:1,2016-05-06T02:45:00Z,29.7858,-84.8752,12.0,1111122 
NERRS,ioos:station:NOAA.NERRS:apaebwq:1,2016-05-06T03:45:00Z,29.7858,-84.8752,11.0,1111122 
NERRS,ioos:station:NOAA.NERRS:apaebwq:1,2016-05-06T04:45:00Z,29.7858,-84.8752,12.0,1111122 
NERRS,ioos:station:NOAA.NERRS:apaebwq:1,2016-05-06T05:45:00Z,29.7858,-84.8752,13.0,1111122 
NERRS,ioos:station:NOAA.NERRS:apaebwq:1,2016-05-06T06:45:00Z,29.7858,-84.8752,13.0,1111122 
NERRS,ioos:station:NOAA.NERRS:apaebwq:1,2016-05-06T07:45:00Z,29.7858,-84.8752,12.0,1111122 
NERRS,ioos:station:NOAA.NERRS:apaebwq:1,2016-05-06T08:45:00Z,29.7858,-84.8752,12.0,1111122 
NERRS,ioos:station:NOAA.NERRS:apaebwq:1,2016-05-06T09:45:00Z,29.7858,-84.8752,14.0,1111122 
NERRS,ioos:station:NOAA.NERRS:apaebwq:1,2016-05-06T10:45:00Z,29.7858,-84.8752,11.0,1111122 
NERRS,ioos:station:NOAA.NERRS:apaebwq:1,2016-05-06T11:45:00Z,29.7858,-84.8752,13.0,1111122 
NERRS,ioos:station:NOAA.NERRS:apaebwq:1,2016-05-06T12:45:00Z,29.7858,-84.8752,12.0,1111122 
NERRS,ioos:station:NOAA.NERRS:apaebwq:1,2016-05-06T13:45:00Z,29.7858,-84.8752,13.0,1111122 
NERRS,ioos:station:NOAA.NERRS:apaebwq:1,2016-05-06T15:45:00Z,29.7858,-84.8752,16.0,1111122 
NERRS,ioos:station:NOAA.NERRS:apaebwq:1,2016-05-06T16:45:00Z,29.7858,-84.8752,14.0,1111122 
NERRS,ioos:station:NOAA.NERRS:apaebwq:1,2016-05-06T17:45:00Z,29.7858,-84.8752,14.0,1111122 
NERRS,ioos:station:NOAA.NERRS:apaebwq:1,2016-05-06T18:45:00Z,29.7858,-84.8752,14.0,1111122 
NERRS,ioos:station:NOAA.NERRS:apaebwq:1,2016-05-06T19:45:00Z,29.7858,-84.8752,16.0,1111122 
NERRS,ioos:station:NOAA.NERRS:apaebwq:1,2016-05-06T20:45:00Z,29.7858,-84.8752,16.0,1111122 
NERRS,ioos:station:NOAA.NERRS:apaebwq:1,2016-05-06T21:45:00Z,29.7858,-84.8752,14.0,1111122 
NERRS,ioos:station:NOAA.NERRS:apaebwq:1,2016-05-06T22:45:00Z,29.7858,-84.8752,14.0,1111122 
NERRS,ioos:station:NOAA.NERRS:apaebwq:1,2016-05-06T23:45:00Z,29.7858,-84.8752,16.0,1111122 
NERRS,ioos:station:NOAA.NERRS:apaebwq:1,2016-05-07T00:45:00Z,29.7858,-84.8752,16.0,1111122 
NERRS,ioos:station:NOAA.NERRS:apaebwq:1,2016-05-07T01:45:00Z,29.7858,-84.8752,14.0,1111122 
NERRS,ioos:station:NOAA.NERRS:apaebwq:1,2016-05-07T02:45:00Z,29.7858,-84.8752,15.0,1111122 
NERRS,ioos:station:NOAA.NERRS:apaebwq:1,2016-05-07T03:45:00Z,29.7858,-84.8752,15.0,1111122 
NERRS,ioos:station:NOAA.NERRS:apaebwq:1,2016-05-07T04:45:00Z,29.7858,-84.8752,13.0,1111122 
NERRS,ioos:station:NOAA.NERRS:apaebwq:1,2016-05-07T05:45:00Z,29.7858,-84.8752,15.0,1111122 
NERRS,ioos:station:NOAA.NERRS:apaebwq:1,2016-05-07T06:45:00Z,29.7858,-84.8752,15.0,1111122 
NERRS,ioos:station:NOAA.NERRS:apaebwq:1,2016-05-07T07:45:00Z,29.7858,-84.8752,17.0,1111122 
NERRS,ioos:station:NOAA.NERRS:apaebwq:1,2016-05-07T08:45:00Z,29.7858,-84.8752,16.0,1111122 
NERRS,ioos:station:NOAA.NERRS:apaebwq:1,2016-05-07T09:45:00Z,29.7858,-84.8752,15.0,1111122 
NERRS,ioos:station:NOAA.NERRS:apaebwq:1,2016-05-07T10:45:00Z,29.7858,-84.8752,16.0,1111122 
NERRS,ioos:station:NOAA.NERRS:apaebwq:1,2016-05-07T11:45:00Z,29.7858,-84.8752,17.0,1111122 
NERRS,ioos:station:NOAA.NERRS:apaebwq:1,2016-05-07T12:45:00Z,29.7858,-84.8752,16.0,1111122 
NERRS,ioos:station:NOAA.NERRS:apaebwq:1,2016-05-07T13:45:00Z,29.7858,-84.8752,16.0,1111122 
NERRS,ioos:station:NOAA.NERRS:apaebwq:1,2016-05-07T14:45:00Z,29.7858,-84.8752,12.0,1111122 
NERRS,ioos:station:NOAA.NERRS:apaebwq:1,2016-05-07T15:45:00Z,29.7858,-84.8752,14.0,1111122 
NERRS,ioos:station:NOAA.NERRS:apaebwq:1,2016-05-07T16:45:00Z,29.7858,-84.8752,14.0,1111122 
NERRS,ioos:station:NOAA.NERRS:apaebwq:1,2016-05-07T17:45:00Z,29.7858,-84.8752,16.0,1111122 
NERRS,ioos:station:NOAA.NERRS:apaebwq:1,2016-05-07T18:45:00Z,29.7858,-84.8752,17.0,1111122 
NERRS,ioos:station:NOAA.NERRS:apaebwq:1,2016-05-07T19:45:00Z,29.7858,-84.8752,18.0,1111122 
NERRS,ioos:station:NOAA.NERRS:apaebwq:1,2016-05-07T20:45:00Z,29.7858,-84.8752,23.0,1111122 
NERRS,ioos:station:NOAA.NERRS:apaebwq:1,2016-05-07T21:45:00Z,29.7858,-84.8752,22.0,1111122 
NERRS,ioos:station:NOAA.NERRS:apaebwq:1,2016-05-07T22:45:00Z,29.7858,-84.8752,27.0,1111122 
NERRS,ioos:station:NOAA.NERRS:apaebwq:1,2016-05-07T23:45:00Z,29.7858,-84.8752,24.0,1111122 
NERRS,ioos:station:NOAA.NERRS:apaebwq:1,2016-05-08T00:45:00Z,29.7858,-84.8752,21.0,1111122 
NERRS,ioos:station:NOAA.NERRS:apaebwq:1,2016-05-08T01:45:00Z,29.7858,-84.8752,17.0,1111122 
NERRS,ioos:station:NOAA.NERRS:apaebwq:1,2016-05-08T02:45:00Z,29.7858,-84.8752,18.0,1111122 
NERRS,ioos:station:NOAA.NERRS:apaebwq:1,2016-05-08T03:45:00Z,29.7858,-84.8752,17.0,1111122 
NERRS,ioos:station:NOAA.NERRS:apaebwq:1,2016-05-08T04:45:00Z,29.7858,-84.8752,15.0,1111122 
NERRS,ioos:station:NOAA.NERRS:apaebwq:1,2016-05-08T05:45:00Z,29.7858,-84.8752,16.0,1111122 
NERRS,ioos:station:NOAA.NERRS:apaebwq:1,2016-05-08T06:45:00Z,29.7858,-84.8752,16.0,1111122 
NERRS,ioos:station:NOAA.NERRS:apaebwq:1,2016-05-08T07:45:00Z,29.7858,-84.8752,17.0,1111122 
NERRS,ioos:station:NOAA.NERRS:apaebwq:1,2016-05-08T08:45:00Z,29.7858,-84.8752,18.0,1111122 
NERRS,ioos:station:NOAA.NERRS:apaebwq:1,2016-05-08T09:45:00Z,29.7858,-84.8752,17.0,1111122 
NERRS,ioos:station:NOAA.NERRS:apaebwq:1,2016-05-08T10:45:00Z,29.7858,-84.8752,16.0,1111122 
NERRS,ioos:station:NOAA.NERRS:apaebwq:1,2016-05-08T11:45:00Z,29.7858,-84.8752,17.0,1111122 
NERRS,ioos:station:NOAA.NERRS:apaebwq:1,2016-05-08T12:45:00Z,29.7858,-84.8752,13.0,1111122 
NERRS,ioos:station:NOAA.NERRS:apaebwq:1,2016-05-08T13:45:00Z,29.7858,-84.8752,16.0,1111122 
NERRS,ioos:station:NOAA.NERRS:apaebwq:1,2016-05-08T14:45:00Z,29.7858,-84.8752,16.0,1111122 
NERRS,ioos:station:NOAA.NERRS:apaebwq:1,2016-05-08T15:45:00Z,29.7858,-84.8752,16.0,1111122 
NERRS,ioos:station:NOAA.NERRS:apaebwq:1,2016-05-08T16:45:00Z,29.7858,-84.8752,15.0,1111122 
NERRS,ioos:station:NOAA.NERRS:apaebwq:1,2016-05-08T17:45:00Z,29.7858,-84.8752,15.0,1111122 
NERRS,ioos:station:NOAA.NERRS:apaebwq:1,2016-05-08T18:45:00Z,29.7858,-84.8752,16.0,1111122 
NERRS,ioos:station:NOAA.NERRS:apaebwq:1,2016-05-08T19:45:00Z,29.7858,-84.8752,17.0,1111122 
NERRS,ioos:station:NOAA.NERRS:apaebwq:1,2016-05-08T20:45:00Z,29.7858,-84.8752,17.0,1111122 
NERRS,ioos:station:NOAA.NERRS:apaebwq:1,2016-05-08T21:45:00Z,29.7858,-84.8752,15.0,1111122 
NERRS,ioos:station:NOAA.NERRS:apaebwq:1,2016-05-08T22:45:00Z,29.7858,-84.8752,16.0,1111122 
NERRS,ioos:station:NOAA.NERRS:apaebwq:1,2016-05-08T23:45:00Z,29.7858,-84.8752,18.0,1111122 
NERRS,ioos:station:NOAA.NERRS:apaebwq:1,2016-05-09T00:45:00Z,29.7858,-84.8752,19.0,1111122 
NERRS,ioos:station:NOAA.NERRS:apaebwq:1,2016-05-09T01:45:00Z,29.7858,-84.8752,16.0,1111122 
NERRS,ioos:station:NOAA.NERRS:apaebwq:1,2016-05-09T02:45:00Z,29.7858,-84.8752,15.0,1111122 
NERRS,ioos:station:NOAA.NERRS:apaebwq:1,2016-05-09T03:45:00Z,29.7858,-84.8752,14.0,1111122 
NERRS,ioos:station:NOAA.NERRS:apaebwq:1,2016-05-09T04:45:00Z,29.7858,-84.8752,13.0,1111122 
NERRS,ioos:station:NOAA.NERRS:apaebwq:1,2016-05-09T05:45:00Z,29.7858,-84.8752,11.0,1111122 
NERRS,ioos:station:NOAA.NERRS:apaebwq:1,2016-05-09T06:45:00Z,29.7858,-84.8752,14.0,1111122 
NERRS,ioos:station:NOAA.NERRS:apaebwq:1,2016-05-09T07:45:00Z,29.7858,-84.8752,16.0,1111122 
NERRS,ioos:station:NOAA.NERRS:apaebwq:1,2016-05-09T08:45:00Z,29.7858,-84.8752,15.0,1111122 
NERRS,ioos:station:NOAA.NERRS:apaebwq:1,2016-05-09T09:45:00Z,29.7858,-84.8752,14.0,1111122 
NERRS,ioos:station:NOAA.NERRS:apaebwq:1,2016-05-09T10:45:00Z,29.7858,-84.8752,16.0,1111122 
NERRS,ioos:station:NOAA.NERRS:apaebwq:1,2016-05-09T11:45:00Z,29.7858,-84.8752,16.0,1111122 
NERRS,ioos:station:NOAA.NERRS:apaebwq:1,2016-05-09T12:45:00Z,29.7858,-84.8752,14.0,1111122 
NERRS,ioos:station:NOAA.NERRS:apaebwq:1,2016-05-09T13:45:00Z,29.7858,-84.8752,14.0,1111122 
NERRS,ioos:station:NOAA.NERRS:apaebwq:1,2016-05-09T14:45:00Z,29.7858,-84.8752,12.0,1111122 
NERRS,ioos:station:NOAA.NERRS:apaebwq:1,2016-05-09T15:45:00Z,29.7858,-84.8752,12.0,1111122 
NERRS,ioos:station:NOAA.NERRS:apaebwq:1,2016-05-09T16:45:00Z,29.7858,-84.8752,14.0,1111122 
NERRS,ioos:station:NOAA.NERRS:apaebwq:1,2016-05-09T17:45:00Z,29.7858,-84.8752,13.0,1111122 
NERRS,ioos:station:NOAA.NERRS:apaebwq:1,2016-05-09T18:45:00Z,29.7858,-84.8752,14.0,1111122 
NERRS,ioos:station:NOAA.NERRS:apaebwq:1,2016-05-09T19:45:00Z,29.7858,-84.8752,14.0,1111122 
NERRS,ioos:station:NOAA.NERRS:apaebwq:1,2016-05-09T20:45:00Z,29.7858,-84.8752,17.0,1111122 
NERRS,ioos:station:NOAA.NERRS:apaebwq:1,2016-05-09T21:45:00Z,29.7858,-84.8752,12.0,1111122 
NERRS,ioos:station:NOAA.NERRS:apaebwq:1,2016-05-09T22:45:00Z,29.7858,-84.8752,12.0,1111122 
NERRS,ioos:station:NOAA.NERRS:apaebwq:1,2016-05-09T23:45:00Z,29.7858,-84.8752,11.0,1111122 
NERRS,ioos:station:NOAA.NERRS:apaebwq:1,2016-05-10T00:45:00Z,29.7858,-84.8752,11.0,1111122 
NERRS,ioos:station:NOAA.NERRS:apaebwq:1,2016-05-10T01:45:00Z,29.7858,-84.8752,11.0,1111122 
NERRS,ioos:station:NOAA.NERRS:apaebwq:1,2016-05-10T02:45:00Z,29.7858,-84.8752,10.0,1111122 
NERRS,ioos:station:NOAA.NERRS:apaebwq:1,2016-05-10T03:45:00Z,29.7858,-84.8752,10.0,1111122 
NERRS,ioos:station:NOAA.NERRS:apaebwq:1,2016-05-10T04:45:00Z,29.7858,-84.8752,9.0,1111122 
NERRS,ioos:station:NOAA.NERRS:apaebwq:1,2016-05-10T05:45:00Z,29.7858,-84.8752,9.0,1111122 
NERRS,ioos:station:NOAA.NERRS:apaebwq:1,2016-05-10T06:45:00Z,29.7858,-84.8752,9.0,1111122 
NERRS,ioos:station:NOAA.NERRS:apaebwq:1,2016-05-10T07:45:00Z,29.7858,-84.8752,9.0,1111122 
NERRS,ioos:station:NOAA.NERRS:apaebwq:1,2016-05-10T13:45:00Z,29.7858,-84.8752,13.0,1111122 
NERRS,ioos:station:NOAA.NERRS:apaebwq:1,2016-05-10T15:45:00Z,29.7858,-84.8752,10.0,1111122 
NERRS,ioos:station:NOAA.NERRS:apaebwq:1,2016-05-10T16:45:00Z,29.7858,-84.8752,9.0,1111122 
NERRS,ioos:station:NOAA.NERRS:apaebwq:1,2016-05-10T17:45:00Z,29.7858,-84.8752,9.0,1111122 
NERRS,ioos:station:NOAA.NERRS:apaebwq:1,2016-05-10T18:45:00Z,29.7858,-84.8752,10.0,1111122 
NERRS,ioos:station:NOAA.NERRS:apaebwq:1,2016-05-10T19:45:00Z,29.7858,-84.8752,9.0,1111122 
NERRS,ioos:station:NOAA.NERRS:apaebwq:1,2016-05-10T20:45:00Z,29.7858,-84.8752,11.0,1111122 
NERRS,ioos:station:NOAA.NERRS:apaebwq:1,2016-05-10T21:45:00Z,29.7858,-84.8752,10.0,1111122 
NERRS,ioos:station:NOAA.NERRS:apaebwq:1,2016-05-10T22:45:00Z,29.7858,-84.8752,11.0,1111122 
NERRS,ioos:station:NOAA.NERRS:apaebwq:1,2016-05-10T23:45:00Z,29.7858,-84.8752,10.0,1111122 
NERRS,ioos:station:NOAA.NERRS:apaebwq:1,2016-05-11T00:45:00Z,29.7858,-84.8752,9.0,1111122 
NERRS,ioos:station:NOAA.NERRS:apaebwq:1,2016-05-11T01:45:00Z,29.7858,-84.8752,10.0,1111122 
NERRS,ioos:station:NOAA.NERRS:apaebwq:1,2016-05-11T02:45:00Z,29.7858,-84.8752,10.0,1111122 
NERRS,ioos:station:NOAA.NERRS:apaebwq:1,2016-05-11T03:45:00Z,29.7858,-84.8752,10.0,1111122 
NERRS,ioos:station:NOAA.NERRS:apaebwq:1,2016-05-11T04:45:00Z,29.7858,-84.8752,9.0,1111122 
NERRS,ioos:station:NOAA.NERRS:apaebwq:1,2016-05-11T05:45:00Z,29.7858,-84.8752,8.0,1111122 
NERRS,ioos:station:NOAA.NERRS:apaebwq:1,2016-05-11T06:45:00Z,29.7858,-84.8752,9.0,1111122 
NERRS,ioos:station:NOAA.NERRS:apaebwq:1,2016-05-11T07:45:00Z,29.7858,-84.8752,8.0,1111122 
NERRS,ioos:station:NOAA.NERRS:apaebwq:1,2016-05-11T08:45:00Z,29.7858,-84.8752,8.0,1111122 
NERRS,ioos:station:NOAA.NERRS:apaebwq:1,2016-05-11T09:45:00Z,29.7858,-84.8752,9.0,1111122 
NERRS,ioos:station:NOAA.NERRS:apaebwq:1,2016-05-11T10:45:00Z,29.7858,-84.8752,10.0,1111122 
NERRS,ioos:station:NOAA.NERRS:apaebwq:1,2016-05-11T11:45:00Z,29.7858,-84.8752,11.0,1111122 
NERRS,ioos:station:NOAA.NERRS:apaebwq:1,2016-05-11T12:45:00Z,29.7858,-84.8752,11.0,1111122 
NERRS,ioos:station:NOAA.NERRS:apaebwq:1,2016-05-11T13:45:00Z,29.7858,-84.8752,11.0,1111122 
NERRS,ioos:station:NOAA.NERRS:apaebwq:1,2016-05-11T14:45:00Z,29.7858,-84.8752,11.0,1111122 
NERRS,ioos:station:NOAA.NERRS:apaebwq:1,2016-05-11T15:45:00Z,29.7858,-84.8752,11.0,1111122 
NERRS,ioos:station:NOAA.NERRS:apaebwq:1,2016-05-11T16:45:00Z,29.7858,-84.8752,9.0,1111122 
NERRS,ioos:station:NOAA.NERRS:apaebwq:1,2016-05-11T17:45:00Z,29.7858,-84.8752,11.0,1111122 
NERRS,ioos:station:NOAA.NERRS:apaebwq:1,2016-05-11T18:45:00Z,29.7858,-84.8752,11.0,1111122 
NERRS,ioos:station:NOAA.NERRS:apaebwq:1,2016-05-11T19:45:00Z,29.7858,-84.8752,13.0,1111122 
NERRS,ioos:station:NOAA.NERRS:apaebwq:1,2016-05-11T20:45:00Z,29.7858,-84.8752,13.0,1111122 
NERRS,ioos:station:NOAA.NERRS:apaebwq:1,2016-05-11T21:45:00Z,29.7858,-84.8752,13.0,1111122 
NERRS,ioos:station:NOAA.NERRS:apaebwq:1,2016-05-11T22:45:00Z,29.7858,-84.8752,11.0,1111122 
NERRS,ioos:station:NOAA.NERRS:apaebwq:1,2016-05-11T23:45:00Z,29.7858,-84.8752,11.0,1111122 
NERRS,ioos:station:NOAA.NERRS:apaebwq:1,2016-05-12T00:45:00Z,29.7858,-84.8752,8.0,1111122 
NERRS,ioos:station:NOAA.NERRS:apaebwq:1,2016-05-12T01:45:00Z,29.7858,-84.8752,9.0,1111122 
NERRS,ioos:station:NOAA.NERRS:apaebwq:1,2016-05-12T02:45:00Z,29.7858,-84.8752,12.0,1111122 
NERRS,ioos:station:NOAA.NERRS:apaebwq:1,2016-05-12T03:45:00Z,29.7858,-84.8752,9.0,1111122 
NERRS,ioos:station:NOAA.NERRS:apaebwq:1,2016-05-12T04:45:00Z,29.7858,-84.8752,9.0,1111122 
NERRS,ioos:station:NOAA.NERRS:apaebwq:1,2016-05-12T05:45:00Z,29.7858,-84.8752,9.0,1111122 
NERRS,ioos:station:NOAA.NERRS:apaebwq:1,2016-05-12T06:45:00Z,29.7858,-84.8752,9.0,1111122 
NERRS,ioos:station:NOAA.NERRS:apaebwq:1,2016-05-12T07:45:00Z,29.7858,-84.8752,8.0,1111122 
NERRS,ioos:station:NOAA.NERRS:apaebwq:1,2016-05-12T08:45:00Z,29.7858,-84.8752,8.0,1111122 
NERRS,ioos:station:NOAA.NERRS:apaebwq:1,2016-05-12T09:45:00Z,29.7858,-84.8752,10.0,1111122 
NERRS,ioos:station:NOAA.NERRS:apaebwq:1,2016-05-12T10:45:00Z,29.7858,-84.8752,10.0,1111122 
NERRS,ioos:station:NOAA.NERRS:apaebwq:1,2016-05-12T11:45:00Z,29.7858,-84.8752,10.0,1111122 
NERRS,ioos:station:NOAA.NERRS:apaebwq:1,2016-05-12T12:45:00Z,29.7858,-84.8752,10.0,1111122 
NERRS,ioos:station:NOAA.NERRS:apaebwq:1,2016-05-12T13:45:00Z,29.7858,-84.8752,9.0,1111122 
NERRS,ioos:station:NOAA.NERRS:apaebwq:1,2016-05-12T14:45:00Z,29.7858,-84.8752,10.0,1111122 
NERRS,ioos:station:NOAA.NERRS:apaebwq:1,2016-05-12T15:45:00Z,29.7858,-84.8752,10.0,1111122 
NERRS,ioos:station:NOAA.NERRS:apaebwq:1,2016-05-12T16:45:00Z,29.7858,-84.8752,10.0,1111122 
NERRS,ioos:station:NOAA.NERRS:apaebwq:1,2016-05-12T17:45:00Z,29.7858,-84.8752,10.0,1111122 
NERRS,ioos:station:NOAA.NERRS:apaebwq:1,2016-05-12T18:45:00Z,29.7858,-84.8752,11.0,1111122 
NERRS,ioos:station:NOAA.NERRS:apaebwq:1,2016-05-12T20:45:00Z,29.7858,-84.8752,17.0,1111122 
NERRS,ioos:station:NOAA.NERRS:apaebwq:1,2016-05-12T21:45:00Z,29.7858,-84.8752,14.0,1111122 
NERRS,ioos:station:NOAA.NERRS:apaebwq:1,2016-05-12T22:45:00Z,29.7858,-84.8752,9.0,1111122 
NERRS,ioos:station:NOAA.NERRS:apaebwq:1,2016-05-12T23:45:00Z,29.7858,-84.8752,10.0,1111122 
NERRS,ioos:station:NOAA.NERRS:apaebwq:1,2016-05-13T00:45:00Z,29.7858,-84.8752,9.0,1111122 
NERRS,ioos:station:NOAA.NERRS:apaebwq:1,2016-05-13T01:45:00Z,29.7858,-84.8752,9.0,1111122 
NERRS,ioos:station:NOAA.NERRS:apaebwq:1,2016-05-13T02:45:00Z,29.7858,-84.8752,10.0,1111122 
NERRS,ioos:station:NOAA.NERRS:apaebwq:1,2016-05-13T03:45:00Z,29.7858,-84.8752,10.0,1111122 
NERRS,ioos:station:NOAA.NERRS:apaebwq:1,2016-05-13T04:45:00Z,29.7858,-84.8752,11.0,1111122 
NERRS,ioos:station:NOAA.NERRS:apaebwq:1,2016-05-13T05:45:00Z,29.7858,-84.8752,10.0,1111122 
NERRS,ioos:station:NOAA.NERRS:apaebwq:1,2016-05-13T06:45:00Z,29.7858,-84.8752,9.0,1111122 
NERRS,ioos:station:NOAA.NERRS:apaebwq:1,2016-05-13T07:45:00Z,29.7858,-84.8752,9.0,1111122 
NERRS,ioos:station:NOAA.NERRS:apaebwq:1,2016-05-13T08:45:00Z,29.7858,-84.8752,8.0,1111122 
NERRS,ioos:station:NOAA.NERRS:apaebwq:1,2016-05-13T09:45:00Z,29.7858,-84.8752,10.0,1111122 
NERRS,ioos:station:NOAA.NERRS:apaebwq:1,2016-05-13T10:45:00Z,29.7858,-84.8752,11.0,1111122 
NERRS,ioos:station:NOAA.NERRS:apaebwq:1,2016-05-13T11:45:00Z,29.7858,-84.8752,10.0,1111122 
NERRS,ioos:station:NOAA.NERRS:apaebwq:1,2016-05-13T12:45:00Z,29.7858,-84.8752,9.0,1111122 
NERRS,ioos:station:NOAA.NERRS:apaebwq:1,2016-05-13T13:45:00Z,29.7858,-84.8752,10.0,1111122 
NERRS,ioos:station:NOAA.NERRS:apaebwq:1,2016-05-13T14:45:00Z,29.7858,-84.8752,11.0,1111122 
NERRS,ioos:station:NOAA.NERRS:apaebwq:1,2016-05-13T15:45:00Z,29.7858,-84.8752,10.0,1111122 
NERRS,ioos:station:NOAA.NERRS:apaebwq:1,2016-05-13T16:45:00Z,29.7858,-84.8752,11.0,1111122 
NERRS,ioos:station:NOAA.NERRS:apaebwq:1,2016-05-13T17:45:00Z,29.7858,-84.8752,14.0,1111122 
NERRS,ioos:station:NOAA.NERRS:apaebwq:1,2016-05-13T18:45:00Z,29.7858,-84.8752,13.0,1111122 
NERRS,ioos:station:NOAA.NERRS:apaebwq:1,2016-05-13T19:45:00Z,29.7858,-84.8752,18.0,1111122 
NERRS,ioos:station:NOAA.NERRS:apaebwq:1,2016-05-13T20:45:00Z,29.7858,-84.8752,11.0,1111122 
NERRS,ioos:station:NOAA.NERRS:apaebwq:1,2016-05-13T21:45:00Z,29.7858,-84.8752,14.0,1111122 
NERRS,ioos:station:NOAA.NERRS:apaebwq:1,2016-05-13T22:45:00Z,29.7858,-84.8752,11.0,1111122 
NERRS,ioos:station:NOAA.NERRS:apaebwq:1,2016-05-13T23:45:00Z,29.7858,-84.8752,12.0,1111122 
NERRS,ioos:station:NOAA.NERRS:apaebwq:1,2016-05-14T00:45:00Z,29.7858,-84.8752,10.0,1111122 
NERRS,ioos:station:NOAA.NERRS:apaebwq:1,2016-05-14T01:45:00Z,29.7858,-84.8752,10.0,1111122 
NERRS,ioos:station:NOAA.NERRS:apaebwq:1,2016-05-14T02:45:00Z,29.7858,-84.8752,10.0,1111122 